Lincoln County, Oregon, United States
Lat: 44.65N, Lon: 123.85W
Wx Zone: ORZ004
Local Info
Past Weather Observations for Yesterday

NOTE: This archive is for the closest National Weather Service station to Lincoln County. Information may differ from the station used for current weather conditions.

Click here for Long-term Archive

Time Weather Temperature Dewpoint Humidity Pressure Winds Precip Visibility
23:55
Clear
57°F / 14°C 54°F / 12°C 88% 29.98 in
(1015 mb)
E 5.8 mph
(E 9 kph)
- 10SM
23:35
Clear
57°F / 14°C 55°F / 13°C 94% 29.98 in
(1015 mb)
E 6.9 mph
(E 11 kph)
- 10SM
23:15
Clear
57°F / 14°C 55°F / 13°C 94% 29.98 in
(1015 mb)
E 3.5 mph
(E 6 kph)
- 10SM
22:55
Clear
57°F / 14°C 55°F / 13°C 94% 29.98 in
(1015 mb)
ENE 5.8 mph
(ENE 9 kph)
- 10SM
22:35
Clear
57°F / 14°C 55°F / 13°C 94% 29.98 in
(1015 mb)
E 9.2 mph
(E 15 kph)
- 10SM
22:15
Partly Cloudy
57°F / 14°C 55°F / 13°C 94% 30.01 in
(1016 mb)
E 5.8 mph
(E 9 kph)
- 10SM
21:55
Clear
55°F / 13°C 55°F / 13°C 100% 30.01 in
(1016 mb)
E 11.5 mph
(E 19 kph)
- 10SM
21:35
Partly Cloudy
Light Rain
55°F / 13°C 55°F / 13°C 100% 30.01 in
(1016 mb)
E 11.5 mph
(E 19 kph)
- 10SM
21:15
Partly Cloudy
57°F / 14°C 55°F / 13°C 94% 30.04 in
(1017 mb)
E 8.1 mph
(E 13 kph)
- 10SM
20:55
Partly Cloudy
Rain
57°F / 14°C 55°F / 13°C 94% 30.04 in
(1017 mb)
E 8.1 mph
(E 13 kph)
- 10SM
20:35
Mostly Cloudy
Light Rain
57°F / 14°C 55°F / 13°C 94% 30.04 in
(1017 mb)
E 5.8 mph
(E 9 kph)
- 10SM
20:15
Partly Cloudy
Light Rain
57°F / 14°C 55°F / 13°C 94% 30.04 in
(1017 mb)
E 4.6 mph
(E 7 kph)
- 10SM
19:55
Clear
Light Rain
57°F / 14°C 55°F / 13°C 94% 30.04 in
(1017 mb)
E 5.8 mph
(E 9 kph)
- 10SM
19:35
Clear
Drizzle
57°F / 14°C 55°F / 13°C 94% 30.04 in
(1017 mb)
E 4.6 mph
(E 7 kph)
- 10SM
19:15
Clear
57°F / 14°C 55°F / 13°C 94% 30.04 in
(1017 mb)
Calm - 7SM
18:55
Overcast
Fog And Mist
55°F / 13°C 55°F / 13°C 100% 30.04 in
(1017 mb)
Calm - 3/4SM
18:35
Overcast
Fog
57°F / 14°C 55°F / 13°C 94% 30.06 in
(1018 mb)
Calm - 1/2SM
18:15
Mostly Cloudy
Fog And Mist
57°F / 14°C 55°F / 13°C 94% 30.06 in
(1018 mb)
Calm - 3/4SM
17:55
Clear
Fog And Mist
57°F / 14°C 57°F / 14°C 100% 30.06 in
(1018 mb)
Calm - 3SM
17:35
Partly Cloudy
Fog And Mist
57°F / 14°C 55°F / 13°C 94% 30.06 in
(1018 mb)
Calm - 2 1/2SM
17:15
Overcast
Fog And Mist
57°F / 14°C 55°F / 13°C 94% 30.06 in
(1018 mb)
Calm - 3/4SM
16:55
Overcast
Fog
59°F / 15°C 57°F / 14°C 94% 30.06 in
(1018 mb)
Calm - 1/2SM
16:35
Obscured
Fog And Mist
59°F / 15°C 55°F / 13°C 88% 30.06 in
(1018 mb)
Calm - 1 3/4SM
16:15
Fog And Mist
59°F / 15°C 55°F / 13°C 88% 30.06 in
(1018 mb)
Calm - 3SM
15:55
Light Rain
59°F / 15°C 55°F / 13°C 88% 30.09 in
(1019 mb)
Calm - 2 1/2SM
15:35
Mostly Cloudy
Fog And Mist
59°F / 15°C 57°F / 14°C 94% 30.09 in
(1019 mb)
Calm - 1 3/4SM
15:15
Mostly Cloudy
Fog And Mist
59°F / 15°C 57°F / 14°C 94% 30.09 in
(1019 mb)
Calm - 1 1/2SM
14:55
Mostly Cloudy
61°F / 16°C 57°F / 14°C 88% 30.09 in
(1019 mb)
Calm - 10SM
14:35
Mostly Cloudy
61°F / 16°C 59°F / 15°C 94% 30.09 in
(1019 mb)
Calm - 10SM
14:15
Mostly Cloudy
61°F / 16°C 57°F / 14°C 88% 30.09 in
(1019 mb)
Calm - 7SM
13:55
Overcast
61°F / 16°C 57°F / 14°C 88% 30.12 in
(1020 mb)
Calm - 10SM
13:35
Mostly Cloudy
61°F / 16°C 57°F / 14°C 88% 30.12 in
(1020 mb)
Calm - 10SM
13:15
Partly Cloudy
61°F / 16°C 57°F / 14°C 88% 30.12 in
(1020 mb)
Calm - 10SM
12:55
Partly Cloudy
61°F / 16°C 57°F / 14°C 88% 30.12 in
(1020 mb)
Calm - 10SM
12:35
Partly Cloudy
61°F / 16°C 57°F / 14°C 88% 30.12 in
(1020 mb)
E 5.8 mph
(E 9 kph)
- 10SM
12:15
Mostly Cloudy
59°F / 15°C 57°F / 14°C 94% 30.15 in
(1021 mb)
ENE 3.5 mph
(ENE 6 kph)
- 10SM
11:55
Overcast
59°F / 15°C 57°F / 14°C 94% 30.15 in
(1021 mb)
NE 4.6 mph
(NE 7 kph)
- 10SM
11:35
Overcast
59°F / 15°C 57°F / 14°C 94% 30.15 in
(1021 mb)
ENE 4.6 mph
(ENE 7 kph)
- 10SM
11:15
Mostly Cloudy
59°F / 15°C 55°F / 13°C 88% 30.15 in
(1021 mb)
Calm - 10SM
10:55
Overcast
Drizzle
57°F / 14°C 55°F / 13°C 94% 30.18 in
(1022 mb)
Calm 0.01 in
(0.25 mm)
2 1/2SM
10:35
Overcast
Drizzle
57°F / 14°C 55°F / 13°C 94% 30.15 in
(1021 mb)
SE 3.5 mph
(SE 6 kph)
- 3SM
10:15
Overcast
Drizzle
57°F / 14°C 55°F / 13°C 94% 30.15 in
(1021 mb)
SE 3.5 mph
(SE 6 kph)
- 3SM
09:55
Mostly Cloudy
Fog And Mist
59°F / 15°C 57°F / 14°C 94% 30.15 in
(1021 mb)
SE 3.5 mph
(SE 6 kph)
- 5SM
09:35
Mostly Cloudy
59°F / 15°C 55°F / 13°C 88% 30.15 in
(1021 mb)
Calm - 7SM
09:15
Mostly Cloudy
Fog And Mist
59°F / 15°C 57°F / 14°C 94% 30.15 in
(1021 mb)
SE 3.5 mph
(SE 6 kph)
- 5SM
08:55
Mostly Cloudy
Fog And Mist
59°F / 15°C 57°F / 14°C 94% 30.15 in
(1021 mb)
SE 3.5 mph
(SE 6 kph)
- 5SM
08:35
Overcast
Fog And Mist
57°F / 14°C 57°F / 14°C 100% 30.15 in
(1021 mb)
SSE 3.5 mph
(SSE 6 kph)
- 3SM
08:15
Overcast
Fog And Mist
57°F / 14°C 55°F / 13°C 94% 30.15 in
(1021 mb)
SSE 4.6 mph
(SSE 7 kph)
- 3SM
07:55
Overcast
Fog And Mist
57°F / 14°C 55°F / 13°C 94% 30.15 in
(1021 mb)
S 4.6 mph
(S 7 kph)
- 2 1/2SM
07:35
Overcast
Fog And Mist
57°F / 14°C 55°F / 13°C 94% 30.15 in
(1021 mb)
S 5.8 mph
(S 9 kph)
- 1 3/4SM
07:15
Overcast
Fog And Mist
57°F / 14°C 55°F / 13°C 94% 30.15 in
(1021 mb)
SSE 5.8 mph
(SSE 9 kph)
- 1 3/4SM
06:55
Overcast
Fog And Mist
57°F / 14°C 55°F / 13°C 94% 30.15 in
(1021 mb)
S 4.6 mph
(S 7 kph)
- 2SM
06:35
Overcast
Fog And Mist
57°F / 14°C 55°F / 13°C 94% 30.12 in
(1020 mb)
SSE 5.8 mph
(SSE 9 kph)
- 2 1/2SM
06:15
Overcast
Fog And Mist
57°F / 14°C 55°F / 13°C 94% 30.12 in
(1020 mb)
S 5.8 mph
(S 9 kph)
- 2 1/2SM
05:55
Overcast
Fog And Mist
57°F / 14°C 55°F / 13°C 94% 30.12 in
(1020 mb)
SSE 9.2 mph
(SSE 15 kph)
- 2 1/2SM
05:35
Overcast
Fog And Mist
57°F / 14°C 55°F / 13°C 94% 30.12 in
(1020 mb)
SSE 5.8 mph
(SSE 9 kph)
- 3SM
05:15
Overcast
Fog And Mist
57°F / 14°C 55°F / 13°C 94% 30.15 in
(1021 mb)
SSE 6.9 mph
(SSE 11 kph)
- 3SM
04:55
Overcast
Fog And Mist
57°F / 14°C 55°F / 13°C 94% 30.12 in
(1020 mb)
SSE 8.1 mph
(SSE 13 kph)
0.01 in
(0.25 mm)
3SM
04:35
Overcast
Drizzle
57°F / 14°C 55°F / 13°C 94% 30.12 in
(1020 mb)
SSE 10.4 mph
(SSE 17 kph)
0.01 in
(0.25 mm)
2 1/2SM
04:15
Overcast
Fog And Mist
57°F / 14°C 55°F / 13°C 94% 30.12 in
(1020 mb)
SSE 10.4 mph
(SSE 17 kph)
- 4SM
03:55
Overcast
Fog And Mist
57°F / 14°C 55°F / 13°C 94% 30.12 in
(1020 mb)
SW 10.4 mph
(SW 17 kph)
- 3SM
03:35
Overcast
Fog And Mist
57°F / 14°C 55°F / 13°C 94% 30.12 in
(1020 mb)
SW 8.1 mph
(SW 13 kph)
- 3SM
03:15
Overcast
Fog And Mist
57°F / 14°C 55°F / 13°C 94% 30.12 in
(1020 mb)
SW 8.1 mph
(SW 13 kph)
- 4SM
02:55
Mostly Cloudy
Light Rain
57°F / 14°C 55°F / 13°C 94% 30.12 in
(1020 mb)
SW 9.2 mph
(SW 15 kph)
- 4SM
02:35
Overcast
Fog And Mist
57°F / 14°C 55°F / 13°C 94% 30.12 in
(1020 mb)
SW 12.7 mph
(SW 20 kph)
- 3SM
02:15
Overcast
Fog And Mist
57°F / 14°C 55°F / 13°C 94% 30.12 in
(1020 mb)
SW 13.8 mph
(SW 22 kph)
- 4SM
01:55
Overcast
Fog And Mist
59°F / 15°C 57°F / 14°C 94% 30.12 in
(1020 mb)
SSE 15 mph
(SSE 24 kph)
0.06 in
(1.52 mm)
4SM
01:35
Overcast
Drizzle
59°F / 15°C 57°F / 14°C 94% 30.12 in
(1020 mb)
SW 17.3 mph
(SW 28 kph)
0.06 in
(1.52 mm)
3SM
01:15
Overcast
Heavy Rain
57°F / 14°C 55°F / 13°C 94% 30.09 in
(1019 mb)
SSE 15 mph
(SSE 24 kph)
0.05 in
(1.27 mm)
2 1/2SM
00:55
Overcast
Heavy Rain
55°F / 13°C 55°F / 13°C 100% 30.09 in
(1019 mb)
SW 8.1 mph
(SW 13 kph)
0.13 in
(3.30 mm)
2 1/2SM
00:35
Overcast
Light Rain
57°F / 14°C 55°F / 13°C 94% 30.09 in
(1019 mb)
SW 17.3 mph
(SW 28 kph)
0.09 in
(2.29 mm)
2SM
00:15
Overcast
Heavy Rain
59°F / 15°C 57°F / 14°C 94% 30.09 in
(1019 mb)
SSE 21.9 mph
(SSE 35 kph)
0.02 in
(0.51 mm)
3SM
Time Weather Temperature Dewpoint Humidity Pressure Winds Precip Visibility


Weather for websites

WeatherForYou.com, LLC is not responsible for any damages or problems caused by this service. Current weather conditions are obtained from the closest station including government and personal stations which may have varying degrees of accuracy. Weather forecasts are derived from the NOAA NDFD. Like all things, this site belongs to Jesus Christ... He just trusts me to maintain it. If you have any questions or comments email webmaster@weatherforyou.com

Copyright © 2014, WeatherForYou.com LLC. All rights reserved.